Date String (YYYY-MM-DD hh:mm:ss) UTC,Instrument flags,absolute air pressure of the measurement (hPa),sample flow rate (lpm),inlet stack bypass flow (lpm),air temperature of the measurement (°C),ambient temperature measured by the external sensor (°C),aerosol sample conditioner tube jacket temperature (°C),OPC LED temperature (°C),internal box temperature (°C),relative humidity of the measurement (%),span deviation,mass concentration of particles derived from Lorenz-Mie calculation of OPC scattering (μg/m³),mass concentration of particles derived from Lorenz-Mie calculation of OPC scattering (μg/m³),mass concentration of particles derived from Lorenz-Mie calculation of OPC scattering (μg/m³)
DateTimeUTC,F1_M11,P_M11,Q1_M11,Q2_M11,T1_M11,T2_M11,T3_M11,T4_M11,T5_M11,U1_M11,ZSPAN_M11,X0_M11,X2_M11,X1_M11
2023-12-31 03:00:00,SystemResetWarning,0830.2,5.00,000.00,025.5,024.1,000.0,033.9,026.8,8.4,0000.0,0009.56,0004.15,0003.53
2023-12-31 03:01:00,SystemResetWarning,0830.2,5.00,000.00,025.5,024.1,000.0,033.9,026.8,8.5,0000.0,0010.27,0004.21,0003.53
2023-12-31 03:02:00,SystemResetWarning,0830.2,5.01,000.00,025.5,024.1,000.0,033.9,026.8,8.5,0000.0,0010.31,0004.27,0003.54
2023-12-31 03:03:00,SystemResetWarning,0830.2,5.00,000.00,025.5,024.0,000.0,033.9,026.8,8.5,0000.0,0010.00,0004.29,0003.56
2023-12-31 03:04:00,SystemResetWarning,0830.2,5.00,000.00,025.5,024.0,000.0,033.9,026.8,8.5,0000.0,0009.75,0004.31,0003.58
2023-12-31 03:05:00,SystemResetWarning,0830.2,5.00,000.00,025.4,024.0,000.0,033.9,026.8,8.5,0000.0,0009.76,0004.27,0003.59
2023-12-31 03:06:00,SystemResetWarning,0830.2,4.99,000.00,025.4,024.0,000.0,033.9,026.8,8.5,0000.0,0010.03,0004.29,0003.61
2023-12-31 03:07:00,SystemResetWarning,0830.1,5.00,000.00,025.4,024.0,000.0,033.9,026.7,8.5,0000.0,0010.14,0004.32,0003.62
2023-12-31 03:08:00,SystemResetWarning,0830.2,4.99,000.00,025.4,024.0,000.0,033.8,026.7,8.5,0000.0,0010.43,0004.37,0003.64
2023-12-31 03:09:00,SystemResetWarning,0830.1,5.00,000.00,025.4,024.0,000.0,033.8,026.7,8.5,0000.0,0010.70,0004.38,0003.64
2023-12-31 03:10:00,SystemResetWarning,0830.1,5.00,000.00,025.4,024.0,000.0,033.8,026.7,8.5,0000.0,0010.53,0004.37,0003.64
2023-12-31 03:11:00,SystemResetWarning,0830.2,5.00,000.00,025.3,024.0,000.0,033.8,026.7,8.5,0000.0,0010.32,0004.33,0003.65
2023-12-31 03:12:00,SystemResetWarning,0830.2,5.00,000.00,025.3,023.9,000.0,033.8,026.7,8.6,0000.0,0009.54,0004.27,0003.66
2023-12-31 03:13:00,SystemResetWarning,0830.2,5.00,000.00,025.3,023.9,000.0,033.8,026.6,8.5,0000.0,0009.08,0004.22,0003.66
2023-12-31 03:14:00,SystemResetWarning,0830.2,5.00,000.00,025.3,023.9,000.0,033.8,026.6,8.6,0000.0,0009.04,0004.22,0003.66
2023-12-31 03:15:00,SystemResetWarning,0830.1,5.00,000.00,025.3,023.9,000.0,033.7,026.6,8.6,0000.0,0008.95,0004.23,0003.67
2023-12-31 03:16:00,SystemResetWarning,0830.2,5.00,000.00,025.3,023.9,000.0,033.7,026.6,8.6,0000.0,0009.99,0004.25,0003.68
2023-12-31 03:17:00,SystemResetWarning,0830.2,5.00,000.00,025.3,023.8,000.0,033.7,026.6,8.6,0000.0,0010.11,0004.25,0003.68
2023-12-31 03:18:00,SystemResetWarning,0830.1,4.98,000.00,025.3,023.8,000.0,033.7,026.6,8.6,0000.0,0010.04,0004.24,0003.69
2023-12-31 03:19:00,SystemResetWarning,0830.1,5.00,000.00,025.2,023.8,000.0,033.7,026.6,8.6,0000.0,0009.87,0004.21,0003.69
2023-12-31 03:20:00,SystemResetWarning,0830.1,4.99,000.00,025.2,023.8,000.0,033.7,026.6,8.7,0000.0,0009.53,0004.21,0003.70
2023-12-31 03:21:00,SystemResetWarning,0830.1,5.01,000.00,025.2,023.8,000.0,033.6,026.5,8.6,0000.0,0009.70,0004.22,0003.71
2023-12-31 03:22:00,SystemResetWarning,0830.1,5.01,000.00,025.2,023.8,000.0,033.6,026.5,8.6,0000.0,0009.85,0004.25,0003.72
2023-12-31 03:23:00,SystemResetWarning,0830.1,5.00,000.00,025.2,023.8,000.0,033.6,026.5,8.7,0000.0,0010.05,0004.25,0003.73
2023-12-31 03:24:00,SystemResetWarning,0830.1,4.99,000.00,025.2,023.8,000.0,033.6,026.5,8.7,0000.0,0010.38,0004.26,0003.73
2023-12-31 03:25:00,SystemResetWarning,0830.1,5.00,000.00,025.2,023.8,000.0,033.6,026.5,8.7,0000.0,0011.01,0004.29,0003.74
2023-12-31 03:26:00,SystemResetWarning,0830.1,5.00,000.00,025.1,023.8,000.0,033.6,026.5,8.6,0000.0,0010.95,0004.27,0003.74
2023-12-31 03:27:00,SystemResetWarning,0830.1,5.00,000.00,025.1,023.7,000.0,033.6,026.5,8.6,0000.0,0009.99,0004.25,0003.74
2023-12-31 03:28:00,SystemResetWarning,0830.1,5.00,000.00,025.1,023.7,000.0,033.6,026.5,8.8,0000.0,0010.09,0004.25,0003.74
2023-12-31 03:29:00,SystemResetWarning,0830.1,5.00,000.00,025.1,023.7,000.0,033.5,026.4,8.7,0000.0,0010.32,0004.25,0003.74
2023-12-31 03:30:00,SystemResetWarning,0830.1,5.00,000.00,025.1,023.7,000.0,033.5,026.4,8.7,0000.0,0010.78,0004.26,0003.75
2023-12-31 03:31:00,SystemResetWarning,0830.1,5.00,000.00,025.1,023.7,000.0,033.5,026.4,8.7,0000.0,0010.79,0004.27,0003.76
2023-12-31 03:32:00,SystemResetWarning,0830.1,5.00,000.00,025.1,023.6,000.0,033.5,026.4,8.7,0000.0,0010.86,0004.29,0003.76
2023-12-31 03:33:00,SystemResetWarning,0830.1,5.01,000.00,025.0,023.6,000.0,033.5,026.4,8.7,0000.0,0010.83,0004.29,0003.76
2023-12-31 03:34:00,SystemResetWarning,0830.1,5.00,000.00,025.0,023.6,000.0,033.5,026.4,8.7,0000.0,0011.29,0004.36,0003.76
2023-12-31 03:35:00,SystemResetWarning,0830.1,5.00,000.00,025.0,023.6,000.0,033.5,026.4,8.7,0000.0,0011.46,0004.41,0003.78
2023-12-31 03:36:00,SystemResetWarning,0830.1,5.00,000.00,025.0,023.6,000.0,033.4,026.3,8.8,0000.0,0010.88,0004.42,0003.80
2023-12-31 03:37:00,SystemResetWarning,0830.1,5.00,000.00,025.0,023.6,000.0,033.4,026.3,8.7,0000.0,0011.22,0004.46,0003.81
2023-12-31 03:38:00,SystemResetWarning,0830.1,5.00,000.00,025.0,023.5,000.0,033.4,026.3,8.8,0000.0,0011.44,0004.49,0003.82
2023-12-31 03:39:00,SystemResetWarning,0830.1,5.00,000.00,025.0,023.5,000.0,033.4,026.3,8.8,0000.0,0011.03,0004.48,0003.82
2023-12-31 03:40:00,SystemResetWarning,0830.1,5.00,000.00,025.0,023.5,000.0,033.4,026.3,8.8,0000.0,0010.61,0004.45,0003.83
2023-12-31 03:41:00,SystemResetWarning,0830.1,5.00,000.00,024.9,023.5,000.0,033.4,026.3,8.8,0000.0,0010.24,0004.44,0003.83
2023-12-31 03:42:00,SystemResetWarning,0830.1,4.99,000.00,024.9,023.5,000.0,033.4,026.3,8.8,0000.0,0010.15,0004.41,0003.82
2023-12-31 03:43:00,SystemResetWarning,0830.1,5.00,000.00,024.9,023.5,000.0,033.3,026.3,8.8,0000.0,0010.00,0004.40,0003.81
2023-12-31 03:44:00,SystemResetWarning,0830.1,5.00,000.00,024.9,023.5,000.0,033.3,026.3,8.8,0000.0,0009.75,0004.37,0003.82
2023-12-31 03:45:00,SystemResetWarning,0830.1,5.00,000.00,024.9,023.5,000.0,033.3,026.3,8.8,0000.0,0010.48,0004.32,0003.82
2023-12-31 03:46:00,SystemResetWarning,0830.1,5.00,000.00,024.9,023.4,000.0,033.3,026.2,8.9,0000.0,0011.11,0004.28,0003.81
2023-12-31 03:47:00,SystemResetWarning,0830.1,5.00,000.00,024.9,023.4,000.0,033.3,026.2,8.9,0000.0,0011.41,0004.27,0003.80
2023-12-31 03:48:00,SystemResetWarning,0830.1,5.00,000.00,024.8,023.4,000.0,033.3,026.2,8.9,0000.0,0011.84,0004.29,0003.79
2023-12-31 03:49:00,SystemResetWarning,0830.1,4.99,000.00,024.8,023.4,000.0,033.3,026.1,8.9,0000.0,0012.20,0004.27,0003.78
2023-12-31 03:50:00,SystemResetWarning,0830.1,4.99,000.00,024.8,023.4,000.0,033.2,026.1,8.9,0000.0,0012.67,0004.30,0003.79
2023-12-31 03:51:00,SystemResetWarning,0830.0,5.00,000.00,024.8,023.4,000.0,033.2,026.1,8.9,0000.0,0013.05,0004.36,0003.79
2023-12-31 03:52:00,SystemResetWarning,0830.0,5.00,000.00,024.8,023.3,000.0,033.2,026.1,8.9,0000.0,0013.24,0004.43,0003.78
2023-12-31 03:53:00,SystemResetWarning,0830.1,5.00,000.00,024.7,023.3,000.0,033.2,026.1,8.9,0000.0,0013.38,0004.47,0003.79
2023-12-31 03:54:00,SystemResetWarning,0830.1,5.00,000.00,024.7,023.3,000.0,033.2,026.0,8.9,0000.0,0013.51,0004.46,0003.78
2023-12-31 03:55:00,SystemResetWarning,0830.1,5.00,000.00,024.7,023.3,000.0,033.2,026.0,9.0,0000.0,0014.03,0004.43,0003.77
2023-12-31 03:56:00,SystemResetWarning,0830.0,5.00,000.00,024.7,023.3,000.0,033.2,026.0,9.0,0000.0,0013.25,0004.43,0003.76
2023-12-31 03:57:00,SystemResetWarning,0830.0,5.00,000.00,024.7,023.2,000.0,033.1,026.0,9.0,0000.0,0011.61,0004.43,0003.75
2023-12-31 03:58:00,SystemResetWarning,0830.0,5.00,000.00,024.7,023.2,000.0,033.1,026.0,9.0,0000.0,0011.03,0004.41,0003.74
2023-12-31 03:59:00,SystemResetWarning,0830.1,5.01,000.00,024.7,023.2,000.0,033.1,026.0,9.0,0000.0,0010.40,0004.34,0003.71
